Regional Weather Roundup
Issued by NWS

Home | Current Version | Previous Version | Text Only | Print | Product List | Glossary Off
Versions: 1 2 3 4 5 6 7 8 9 10 11 12 13 14 15 16 17 18 19 20 21 22 23 24 25 26 27 28 29 30 31 32 33 34 35 36 37 38 39 40 41 42 43 44 45 46 47 48 49 50

000
ASUS43 KOAX 272010
RWRNE

WEATHER ROUNDUP FOR NEBRASKA
NATIONAL WEATHER SERVICE OMAHA NE
300 PM CDT FRI MAR 27 2015

NOTES: SATELLITE DATA IS BEING USED TO AUGMENT CLOUD COVER ABOVE
       12000 FEET.
       "FAIR" INDICATES FEW OR NO CLOUDS BELOW 12,000 FEET WITH NO
       SIGNIFICANT WEATHER AND/OR OBSTRUCTIONS TO VISIBILITY.

  * THESE STATIONS DO NOT REPORT WEATHER SUCH AS RAIN...SNOW OR FOG.

NEZ001>004-019>022-054>056-272100-
NEBRASKA PANHANDLE

CITY           SKY/WX    TMP DP  RH WIND       PRES   REMARKS
SCOTTSBLUFF    FAIR      70  35  27 W26G35    30.02F
ALLIANCE       PTSUNNY   68  36  30 NW21G33   29.99F
CHADRON        FAIR      68  38  33 NW22G33   29.98F
KIMBALL        FAIR      65  31  28 NW22G31   30.05F
SIDNEY         FAIR      67  36  31 NW22G33   30.05F
$$

NEZ057>060-069>072-079>082-272100-
SOUTHWEST NEBRASKA

CITY           SKY/WX    TMP DP  RH WIND       PRES   REMARKS
NORTH PLATTE   FAIR      56  38  50 S15G22    30.02F
IMPERIAL         N/A     67  37  33 N18G28    30.02F
LEXINGTON      FAIR      48  32  53 S15G24    30.07F
MCCOOK         FAIR      57  36  45 S8G17     30.07F
OGALLALA       PTSUNNY   67  36  31 NW24G31   29.99F
$$

NEZ005>010-023>029-035>040-094-272100-
NORTH CENTRAL NEBRASKA

CITY           SKY/WX    TMP DP  RH WIND       PRES   REMARKS
VALENTINE      CLOUDY    54  37  52 S7        29.94F
AINSWORTH      PTSUNNY   49  35  57 S14G20    29.96F
BROKEN BOW     CLOUDY    45  32  60 SW18G30   30.05F
O`NEILL        CLOUDY    33  31  92 S12       30.09F WCI  24
ORD            CLOUDY    37  27  67 S12       30.09F WCI  29
THEDFORD       CLOUDY    60  40  47 SW9       29.95F
$$

NEZ041-046>049-061>064-073>077-083>087-272100-
SOUTH CENTRAL NEBRASKA

CITY           SKY/WX    TMP DP  RH WIND       PRES   REMARKS
GRAND ISLAND   LGT SNOW  36  26  67 S10       30.15F WCI  28
AURORA         CLOUDY    38  24  57 SW7       30.16F WCI  32
HASTINGS       CLOUDY    38  21  50 S12       30.13F WCI  30
HEBRON         CLOUDY    40  19  43 CALM      30.17F
HOLDREGE       PTSUNNY   45  26  48 S18G24    30.09F
KEARNEY *      CLOUDY    43  25  49 S16G24    30.11F
YORK           FAIR      37  25  60 S6        30.15F WCI  33
$$

NEZ011>018-030>034-042>045-272100-
NORTHEAST NEBRASKA

CITY           SKY/WX    TMP DP  RH WIND       PRES   REMARKS
NORFOLK        LGT SNOW  34  26  72 S8        30.15F WCI  27
ALBION         LGT SNOW  34  26  72 S9        30.15S WCI  27
BLAIR          FAIR      39  13  35 CALM      30.16F
COLUMBUS *     CLOUDY    36  19  51 S6        30.17F WCI  31
FREMONT        PTSUNNY   37  15  40 CALM      30.19F
TEKAMAH        PTSUNNY   40  12  32 MISG      30.18F
WAYNE          CLOUDY    36  19  50 SW6       30.16F WCI  31
$$

NEZ050>053-065>068-078-088>093-272100-
SOUTHEAST NEBRASKA

CITY           SKY/WX    TMP DP  RH WIND       PRES   REMARKS
LINCOLN        CLOUDY    39  18  42 CALM      30.19F
OMAHA EPPLEY   CLOUDY    40   9  28 CALM      30.18F
BEATRICE       CLOUDY    39  19  44 N3        30.18F
FALLS CITY     FAIR      40  19  43 E5        30.18F
NEBRASKA CITY  PTSUNNY   38  15  37 S3        30.18F
PLATTSMOUTH    CLOUDY    38  10  31 CALM      30.18F
$$

NEZ044-045-051>053-067-272100-
OMAHA AREA

CITY           SKY/WX    TMP DP  RH WIND       PRES   REMARKS
OMAHA EPPLEY   CLOUDY    40   9  28 CALM      30.18F
BLAIR          FAIR      39  13  35 CALM      30.16F
FREMONT        PTSUNNY   37  15  40 CALM      30.19F
MILLARD        PTSUNNY   39  12  32 CALM      30.18F
OFFUTT AFB     CLOUDY    39  11  31 VRB3      30.18F
PLATTSMOUTH    CLOUDY    38  10  31 CALM      30.18F
WAHOO          FAIR      37  16  42 CALM      30.19F
$$



USA.gov is the U.S. government's official web portal to all federal, state and local government web resources and services.